WAT2067 LZIB-LKPR

Flight info

Callsign WAT2067
Flight time 0h 38m
Altitude 20000
Route BERVA M748 TUTPI A4 ODNEM DCT TUMKA DCT VLM
Aircraft B738/M-SDE2E3FGHIRWXY/LB1

Departure

Time 2026-05-05 22:28
Airport M. R. Štefánik Airport (LZIB)

Arrival

Time 2026-05-05 23:06
Airport Václav Havel Airport Prague (LKPR)
Time Latitude Longitude Altitude Speed Heading
2026-05-05 22:17 48.16915 17.20090 431 ft 0 kts 314°
2026-05-05 22:21 48.16905 17.20105 417 ft 4 kts 314°
2026-05-05 22:22 48.16889 17.20130 428 ft 4 kts 328°
2026-05-05 22:22 48.16868 17.20136 424 ft 4 kts 31°
2026-05-05 22:22 48.16852 17.20118 418 ft 1 kts 44°
2026-05-05 22:22 48.16849 17.20114 418 ft 0 kts 44°
2026-05-05 22:25 48.16869 17.20142 417 ft 11 kts 44°
2026-05-05 22:25 48.16936 17.20239 426 ft 14 kts 44°
2026-05-05 22:25 48.17006 17.20338 427 ft 14 kts 43°
2026-05-05 22:26 48.17074 17.20434 423 ft 13 kts 44°
2026-05-05 22:26 48.17138 17.20528 430 ft 13 kts 45°
2026-05-05 22:26 48.17217 17.20558 421 ft 12 kts 337°
2026-05-05 22:26 48.17278 17.20472 426 ft 12 kts 312°
2026-05-05 22:27 48.17337 17.20383 424 ft 12 kts 316°
2026-05-05 22:27 48.17401 17.20311 427 ft 11 kts 339°
2026-05-05 22:27 48.17475 17.20306 425 ft 10 kts 21°
2026-05-05 22:27 48.17526 17.20374 425 ft 10 kts 63°
2026-05-05 22:28 48.17524 17.20470 424 ft 10 kts 126°
2026-05-05 22:28 48.17344 17.20753 424 ft 82 kts 133°
2026-05-05 22:28 48.16740 17.21681 500 ft 158 kts 135°
2026-05-05 22:28 48.15906 17.22950 1436 ft 173 kts 140°
2026-05-05 22:29 48.15066 17.24294 2563 ft 190 kts 141°
2026-05-05 22:29 48.14089 17.25816 3151 ft 215 kts 137°
2026-05-05 22:29 48.13052 17.27480 3952 ft 220 kts 138°
2026-05-05 22:29 48.11968 17.29157 4802 ft 225 kts 137°
2026-05-05 22:30 48.11199 17.31120 6003 ft 225 kts 110°
2026-05-05 22:30 48.11207 17.33525 6776 ft 243 kts 76°
2026-05-05 22:30 48.12012 17.35784 7576 ft 252 kts 51°
2026-05-05 22:30 48.13305 17.37554 8440 ft 255 kts 30°
2026-05-05 22:31 48.14997 17.38253 9262 ft 256 kts 355°
2026-05-05 22:31 48.16741 17.37543 9665 ft 273 kts 327°
2026-05-05 22:31 48.18438 17.36006 10025 ft 295 kts 324°
2026-05-05 22:31 48.20206 17.34350 10805 ft 302 kts 324°
2026-05-05 22:32 48.21988 17.32700 11795 ft 301 kts 326°
2026-05-05 22:32 48.23966 17.31499 12530 ft 317 kts 351°
2026-05-05 22:32 48.26153 17.31808 13430 ft 324 kts 18°
2026-05-05 22:32 48.28114 17.33616 13785 ft 345 kts 45°
2026-05-05 22:33 48.29835 17.36305 13992 ft 368 kts 47°
2026-05-05 22:33 48.31835 17.38814 14145 ft 392 kts 33°
2026-05-05 22:33 48.34252 17.40935 14366 ft 411 kts 28°
2026-05-05 22:33 48.36802 17.42997 14902 ft 420 kts 28°
2026-05-05 22:34 48.39368 17.45163 15522 ft 426 kts 30°
2026-05-05 22:34 48.41928 17.47433 16210 ft 429 kts 31°
2026-05-05 22:34 48.44539 17.49634 16883 ft 432 kts 23°
2026-05-05 22:34 48.47453 17.50758 17501 ft 434 kts
2026-05-05 22:35 48.50466 17.51327 18094 ft 439 kts
2026-05-05 22:35 48.53505 17.51998 18569 ft 444 kts
2026-05-05 22:35 48.56575 17.52750 19125 ft 447 kts
2026-05-05 22:35 48.59673 17.52919 19647 ft 446 kts 349°
2026-05-05 22:36 48.62635 17.51544 19809 ft 450 kts 332°
2026-05-05 22:36 48.65250 17.48913 19824 ft 454 kts 315°
2026-05-05 22:36 48.67425 17.45465 19831 ft 453 kts 309°
2026-05-05 22:36 48.69539 17.41935 19818 ft 451 kts 310°
2026-05-05 22:37 48.71677 17.38461 19813 ft 450 kts 311°
2026-05-05 22:37 48.73834 17.35025 19814 ft 450 kts 311°
2026-05-05 22:37 48.75977 17.31632 19809 ft 450 kts 311°
2026-05-05 22:37 48.78141 17.28205 19813 ft 451 kts 311°
2026-05-05 22:38 48.80314 17.24757 19815 ft 451 kts 311°
2026-05-05 22:38 48.82478 17.21311 19814 ft 452 kts 311°
2026-05-05 22:38 48.84641 17.17853 19798 ft 452 kts 310°
2026-05-05 22:38 48.86672 17.14220 19803 ft 450 kts 304°
2026-05-05 22:39 48.88495 17.10351 19810 ft 450 kts 302°
2026-05-05 22:39 48.90267 17.06430 19794 ft 450 kts 302°
2026-05-05 22:39 48.92029 17.02498 19788 ft 449 kts 302°
2026-05-05 22:39 48.93793 16.98580 19796 ft 449 kts 302°
2026-05-05 22:40 48.95567 16.94670 19799 ft 449 kts 302°
2026-05-05 22:40 48.97351 16.90766 19794 ft 449 kts 302°
2026-05-05 22:40 48.99139 16.86868 19784 ft 450 kts 302°
2026-05-05 22:40 49.00932 16.82964 19781 ft 450 kts 302°
2026-05-05 22:41 49.02726 16.79065 19774 ft 450 kts 302°
2026-05-05 22:41 49.04517 16.75152 19780 ft 450 kts 301°
2026-05-05 22:41 49.06261 16.71185 19778 ft 451 kts 302°
2026-05-05 22:41 49.08057 16.67261 19781 ft 451 kts 303°
2026-05-05 22:42 49.09866 16.63349 19776 ft 451 kts 303°
2026-05-05 22:42 49.11671 16.59433 19775 ft 450 kts 302°
2026-05-05 22:42 49.13469 16.55515 19791 ft 451 kts 302°
2026-05-05 22:42 49.15267 16.51576 19788 ft 451 kts 302°
2026-05-05 22:43 49.17055 16.47632 19774 ft 451 kts 302°
2026-05-05 22:43 49.18837 16.43680 19785 ft 451 kts 302°
2026-05-05 22:43 49.20621 16.39734 19784 ft 451 kts 302°
2026-05-05 22:43 49.22405 16.35789 19782 ft 451 kts 302°
2026-05-05 22:44 49.24185 16.31844 19783 ft 451 kts 302°
2026-05-05 22:44 49.25969 16.27883 19785 ft 451 kts 302°
2026-05-05 22:44 49.27746 16.23931 19782 ft 451 kts 302°
2026-05-05 22:44 49.29501 16.20018 19785 ft 451 kts 302°
2026-05-05 22:45 49.31278 16.16052 19789 ft 450 kts 302°
2026-05-05 22:45 49.33048 16.12098 19792 ft 451 kts 302°
2026-05-05 22:45 49.34823 16.08124 19794 ft 451 kts 302°
2026-05-05 22:45 49.36599 16.04145 19793 ft 451 kts 302°
2026-05-05 22:46 49.38373 16.00164 19779 ft 451 kts 302°
2026-05-05 22:46 49.40144 15.96183 19788 ft 451 kts 302°
2026-05-05 22:46 49.41801 15.92176 19787 ft 449 kts 297°
2026-05-05 22:46 49.43311 15.87911 19785 ft 448 kts 295°
2026-05-05 22:47 49.44713 15.83691 19788 ft 448 kts 294°
2026-05-05 22:47 49.46113 15.79409 19790 ft 449 kts 294°
2026-05-05 22:47 49.47522 15.75121 19784 ft 449 kts 295°
2026-05-05 22:47 49.48946 15.70834 19779 ft 449 kts 295°
2026-05-05 22:48 49.50382 15.66547 19783 ft 449 kts 295°
2026-05-05 22:48 49.51821 15.62275 19782 ft 449 kts 295°
2026-05-05 22:48 49.53261 15.58009 19785 ft 449 kts 295°
2026-05-05 22:48 49.54705 15.53731 19787 ft 449 kts 295°
2026-05-05 22:49 49.56125 15.49521 19779 ft 449 kts 295°
2026-05-05 22:49 49.57560 15.45256 19781 ft 448 kts 295°
2026-05-05 22:49 49.58992 15.40985 19795 ft 449 kts 295°
2026-05-05 22:49 49.60422 15.36712 19790 ft 449 kts 295°
2026-05-05 22:50 49.61855 15.32422 19785 ft 450 kts 295°
2026-05-05 22:50 49.63288 15.28128 19783 ft 450 kts 295°
2026-05-05 22:50 49.64719 15.23831 19787 ft 451 kts 295°
2026-05-05 22:50 49.66150 15.19528 19784 ft 450 kts 295°
2026-05-05 22:51 49.67577 15.15231 19763 ft 447 kts 295°
2026-05-05 22:51 49.68985 15.10987 19162 ft 440 kts 295°
2026-05-05 22:51 49.70376 15.06815 18521 ft 433 kts 296°
2026-05-05 22:51 49.72017 15.02933 17820 ft 431 kts 305°
2026-05-05 22:52 49.73900 14.99351 17049 ft 427 kts 308°
2026-05-05 22:52 49.75793 14.95843 16336 ft 424 kts 307°
2026-05-05 22:52 49.77637 14.92297 15617 ft 419 kts 306°
2026-05-05 22:52 49.79386 14.88756 14922 ft 412 kts 306°
2026-05-05 22:53 49.81444 14.85738 14228 ft 409 kts 327°
2026-05-05 22:53 49.83950 14.83795 13581 ft 409 kts 339°
2026-05-05 22:53 49.86737 14.82918 12859 ft 408 kts 351°
2026-05-05 22:53 49.89542 14.82355 12160 ft 404 kts 351°
2026-05-05 22:54 49.92321 14.81755 11487 ft 400 kts 349°
2026-05-05 22:54 49.95061 14.81117 10900 ft 395 kts 349°
2026-05-05 22:54 49.97717 14.80481 10802 ft 377 kts 348°
2026-05-05 22:54 50.00217 14.79618 10629 ft 359 kts 339°
2026-05-05 22:55 50.02412 14.78010 10470 ft 341 kts 319°
2026-05-05 22:55 50.03951 14.75387 10346 ft 320 kts 297°
2026-05-05 22:55 50.04775 14.72268 10236 ft 306 kts 279°
2026-05-05 22:55 50.05001 14.69087 10117 ft 290 kts 265°
2026-05-05 22:56 50.04876 14.67049 10040 ft 281 kts 256°
2026-05-05 22:56 50.03985 14.63336 9892 ft 269 kts 244°
2026-05-05 22:56 50.03477 14.61596 9793 ft 263 kts 243°
2026-05-05 22:56 50.02708 14.59027 9475 ft 261 kts 243°
2026-05-05 22:57 50.01948 14.56458 9176 ft 261 kts 244°
2026-05-05 22:57 50.01200 14.53892 8878 ft 259 kts 243°
2026-05-05 22:57 50.00513 14.51292 8548 ft 263 kts 256°
2026-05-05 22:57 50.00632 14.48419 8243 ft 277 kts 287°
2026-05-05 22:58 50.01616 14.45847 7989 ft 280 kts 307°
2026-05-05 22:58 50.03191 14.44030 7661 ft 289 kts 336°
2026-05-05 22:58 50.05190 14.43844 7394 ft 292 kts
2026-05-05 22:58 50.07078 14.44998 7081 ft 295 kts 36°
2026-05-05 22:59 50.08431 14.47344 6795 ft 291 kts 64°
2026-05-05 22:59 50.09287 14.50174 6538 ft 287 kts 68°
2026-05-05 22:59 50.10090 14.52966 6288 ft 285 kts 68°
2026-05-05 22:59 50.10897 14.55737 6166 ft 277 kts 68°
2026-05-05 23:00 50.12561 14.61007 5898 ft 267 kts 52°
2026-05-05 23:00 50.14018 14.62660 5751 ft 255 kts 17°
2026-05-05 23:00 50.15730 14.63051 5684 ft 245 kts 355°
2026-05-05 23:01 50.17355 14.62493 5519 ft 237 kts 334°
2026-05-05 23:01 50.18842 14.61437 5304 ft 234 kts 331°
2026-05-05 23:01 50.20134 14.59982 5073 ft 226 kts 301°
2026-05-05 23:01 50.20489 14.57789 5062 ft 207 kts 256°
2026-05-05 23:02 50.20032 14.55646 4924 ft 208 kts 246°
2026-05-05 23:02 50.19470 14.53566 4788 ft 211 kts 243°
2026-05-05 23:02 50.18856 14.51507 4533 ft 213 kts 242°
2026-05-05 23:02 50.18228 14.49427 4244 ft 210 kts 243°
2026-05-05 23:03 50.17616 14.47378 3963 ft 206 kts 243°
2026-05-05 23:03 50.17031 14.45416 3691 ft 200 kts 243°
2026-05-05 23:03 50.16451 14.43497 3434 ft 194 kts 242°
2026-05-05 23:03 50.15884 14.41625 3201 ft 189 kts 241°
2026-05-05 23:04 50.15328 14.39787 2960 ft 186 kts 242°
2026-05-05 23:04 50.14782 14.37976 2717 ft 183 kts 243°
2026-05-05 23:04 50.14249 14.36177 2454 ft 182 kts 245°
2026-05-05 23:04 50.13736 14.34410 2206 ft 172 kts 244°
2026-05-05 23:05 50.13210 14.32771 1961 ft 166 kts 246°
2026-05-05 23:05 50.12746 14.31178 1734 ft 161 kts 248°
2026-05-05 23:05 50.12267 14.29609 1532 ft 156 kts 246°
2026-05-05 23:05 50.11828 14.28118 1321 ft 148 kts 245°
2026-05-05 23:06 50.11403 14.26694 1168 ft 139 kts 245°
2026-05-05 23:06 50.11051 14.25524 1159 ft 91 kts 244°
2026-05-05 23:06 50.10850 14.24859 1153 ft 60 kts 245°
2026-05-05 23:06 50.10729 14.24534 1161 ft 25 kts 229°
2026-05-05 23:07 50.10634 14.24395 1163 ft 14 kts 216°
2026-05-05 23:07 50.10552 14.24314 1162 ft 14 kts 212°
2026-05-05 23:07 50.10471 14.24258 1163 ft 13 kts 165°
2026-05-05 23:07 50.10384 14.24280 1167 ft 13 kts 153°
2026-05-05 23:08 50.10359 14.24400 1165 ft 12 kts 79°
2026-05-05 23:08 50.10377 14.24530 1164 ft 12 kts 77°
2026-05-05 23:08 50.10404 14.24653 1164 ft 12 kts 63°
2026-05-05 23:08 50.10439 14.24770 1162 ft 12 kts 67°
2026-05-05 23:09 50.10476 14.24898 1163 ft 13 kts 63°
2026-05-05 23:09 50.10515 14.25023 1164 ft 13 kts 65°
2026-05-05 23:09 50.10552 14.25147 1164 ft 12 kts 67°
2026-05-05 23:09 50.10575 14.25274 1167 ft 12 kts 79°
2026-05-05 23:10 50.10589 14.25402 1169 ft 12 kts 80°
2026-05-05 23:10 50.10615 14.25519 1169 ft 11 kts 55°
2026-05-05 23:10 50.10675 14.25600 1171 ft 12 kts 32°
2026-05-05 23:10 50.10747 14.25673 1167 ft 13 kts 34°
2026-05-05 23:11 50.10820 14.25755 1165 ft 13 kts 35°
2026-05-05 23:11 50.10890 14.25834 1163 ft 12 kts 34°
2026-05-05 23:11 50.10955 14.25915 1162 ft 12 kts 62°
2026-05-05 23:11 50.10930 14.26033 1164 ft 12 kts 124°
2026-05-05 23:12 50.10884 14.26134 1168 ft 11 kts 125°
2026-05-05 23:12 50.10839 14.26231 1169 ft 11 kts 126°
2026-05-05 23:12 50.10804 14.26340 1171 ft 11 kts 122°
2026-05-05 23:12 50.10823 14.26426 1172 ft 9 kts 13°
2026-05-05 23:13 50.10851 14.26445 1173 ft 0 kts 29°